Zim Qingdao — A8IZ2 — position and weather

sailwx.info

Track history (hours):
 
Tides and Currents Weather Stations Pressure Air Temp Water Temp Dewpoint Dewpoint Depression Visibility Wind Speed Wind Dir Waves Ship Positions

Zim Qingdao

Last reported at 2014-Nov-23 04:33 UTC. Time now 2014-Nov-23 16:16 UTC.
Position N 39°39' W 073°52'.

Length 260.61 m; beam 32.25 m; draft 12.6 m.

Type: Cargo ship. MMSI: 636012904.

Date/timePositionNaut miles runAvg speedWind from/ knotsBaromVisibWave heightAir tempDewpointWater temp
2014-Nov-23 04:33N 39°39' W 073°52'1615.8
2014-Nov-23 03:33N 39°55' W 073°51'3311.1
2014-Nov-23 00:33N 40°28' W 073°53'1211.7
2014-Nov-22 23:33N 40°37' W 074°03'5 5.1
2014-Nov-22 22:34N 40°39' W 074°09'2 1.4
2014-Nov-22 21:29N 40°41' W 074°09'0 0.0
2014-Nov-22 20:26N 40°41' W 074°09'0 0.0
2014-Nov-22 19:29N 40°41' W 074°09'0 0.0
2014-Nov-22 18:32N 40°41' W 074°09'0 0.0
2014-Nov-22 17:29N 40°41' W 074°09'0 0.0
2014-Nov-22 16:32N 40°41' W 074°09'0 0.0
2014-Nov-22 15:32N 40°41' W 074°09'0 0.0
2014-Nov-22 14:29N 40°41' W 074°09'0 0.0
2014-Nov-22 13:32N 40°41' W 074°09'0 0.0
2014-Nov-22 12:32N 40°41' W 074°09'0 0.0
2014-Nov-22 11:29N 40°41' W 074°09'0 0.0
2014-Nov-22 10:32N 40°41' W 074°09'0 0.0
2014-Nov-22 09:32N 40°41' W 074°09'0 0.0
2014-Nov-22 08:32N 40°41' W 074°09'0 0.0
2014-Nov-22 07:32N 40°41' W 074°09'0 0.0
2014-Nov-22 06:32N 40°41' W 074°09'0 0.0
2014-Nov-22 05:32N 40°41' W 074°09'0 0.0
2014-Nov-22 04:32N 40°41' W 074°09'0 0.0
2014-Nov-22 03:26N 40°41' W 074°09'0 0.0
2014-Nov-22 02:32N 40°41' W 074°09'0 0.0
2014-Nov-22 01:32N 40°41' W 074°09'0 0.0
2014-Nov-22 00:29N 40°41' W 074°09'0 0.0
2014-Nov-21 23:32N 40°41' W 074°09'0 0.0
2014-Nov-21 22:29N 40°41' W 074°09'0 0.0
2014-Nov-21 21:32N 40°41' W 074°09'0 0.0
2014-Nov-21 20:23N 40°41' W 074°09'0 0.0
2014-Nov-21 19:29N 40°41' W 074°09'0 0.0
2014-Nov-21 18:29N 40°41' W 074°09'0 0.0
2014-Nov-21 17:32N 40°41' W 074°09'2 2.2
2014-Nov-21 16:34N 40°39' W 074°09'6 5.5
2014-Nov-21 15:33N 40°36' W 074°02'1110.8
2014-Nov-21 14:33N 40°28' W 073°52'6813.5
2014-Nov-21 09:33N 40°31' W 072°23'1717.0
2014-Nov-21 08:33N 40°31' W 072°01'1716.9
2014-Nov-21 07:34N 40°32' W 071°39'1717.2
2014-Nov-21 06:33N 40°32' W 071°16'  
2014-Nov-15 21:04N 38°48' W 031°45'2616.1
2014-Nov-15 19:29N 38°40' W 031°14'3516.4
2014-Nov-15 17:21N 38°28' W 030°32'1316.2
2014-Nov-15 16:33N 38°24' W 030°16'1616.0
2014-Nov-15 15:33N 38°19' W 029°57'1615.5
2014-Nov-15 14:33N 38°13' W 029°39'1515.5
2014-Nov-15 13:33N 38°08' W 029°20'1515.1
2014-Nov-15 12:33N 38°03' W 029°02'1515.4
2014-Nov-15 11:33N 37°57' W 028°44'1615.8
2014-Nov-15 10:34N 37°51' W 028°25'1615.8
2014-Nov-15 09:33N 37°46' W 028°06'1616.1
2014-Nov-15 08:33N 37°40' W 027°47'1716.8
2014-Nov-15 07:33N 37°34' W 027°28'1717.1
2014-Nov-15 06:33N 37°27' W 027°08'1716.9
2014-Nov-15 05:34N 37°21' W 026°48'1716.5
2014-Nov-15 04:34N 37°15' W 026°29'1616.2
2014-Nov-15 03:34N 37°08' W 026°10'1616.2
2014-Nov-15 02:34N 37°01' W 025°52'1616.3
2014-Nov-15 01:34N 36°55' W 025°33'1616.3
2014-Nov-15 00:34N 36°49' W 025°14'1716.7
2014-Nov-14 23:34N 36°42' W 024°55'1716.9
2014-Nov-14 22:34N 36°40' W 024°34'1717.2
2014-Nov-14 21:33N 36°39' W 024°13'1716.7
2014-Nov-14 20:34N 36°38' W 023°52'  
Track history (hours):
 
Tides and Currents Weather Stations Pressure Air Temp Water Temp Dewpoint Dewpoint Depression Visibility Wind Speed Wind Dir Waves Ship Positions

Zim Qingdao

Last reported at 2014-Nov-23 04:33 UTC. Time now 2014-Nov-23 16:16 UTC.
Position N 39°39' W 073°52'.

Length 260.61 m; beam 32.25 m; draft 12.6 m.

Type: Cargo ship. MMSI: 636012904.

Date/timePositionNaut miles runAvg speedWind from/ knotsBaromVisibWave heightAir tempDewpointWater temp
2014-Nov-23 04:33N 39°39' W 073°52'1615.8
2014-Nov-23 03:33N 39°55' W 073°51'3311.1
2014-Nov-23 00:33N 40°28' W 073°53'1211.7
2014-Nov-22 23:33N 40°37' W 074°03'5 5.1
2014-Nov-22 22:34N 40°39' W 074°09'2 1.4
2014-Nov-22 21:29N 40°41' W 074°09'0 0.0
2014-Nov-22 20:26N 40°41' W 074°09'0 0.0
2014-Nov-22 19:29N 40°41' W 074°09'0 0.0
2014-Nov-22 18:32N 40°41' W 074°09'0 0.0
2014-Nov-22 17:29N 40°41' W 074°09'0 0.0
2014-Nov-22 16:32N 40°41' W 074°09'0 0.0
2014-Nov-22 15:32N 40°41' W 074°09'0 0.0
2014-Nov-22 14:29N 40°41' W 074°09'0 0.0
2014-Nov-22 13:32N 40°41' W 074°09'0 0.0
2014-Nov-22 12:32N 40°41' W 074°09'0 0.0
2014-Nov-22 11:29N 40°41' W 074°09'0 0.0
2014-Nov-22 10:32N 40°41' W 074°09'0 0.0
2014-Nov-22 09:32N 40°41' W 074°09'0 0.0
2014-Nov-22 08:32N 40°41' W 074°09'0 0.0
2014-Nov-22 07:32N 40°41' W 074°09'0 0.0
2014-Nov-22 06:32N 40°41' W 074°09'0 0.0
2014-Nov-22 05:32N 40°41' W 074°09'0 0.0
2014-Nov-22 04:32N 40°41' W 074°09'0 0.0
2014-Nov-22 03:26N 40°41' W 074°09'0 0.0
2014-Nov-22 02:32N 40°41' W 074°09'0 0.0
2014-Nov-22 01:32N 40°41' W 074°09'0 0.0
2014-Nov-22 00:29N 40°41' W 074°09'0 0.0
2014-Nov-21 23:32N 40°41' W 074°09'0 0.0
2014-Nov-21 22:29N 40°41' W 074°09'0 0.0
2014-Nov-21 21:32N 40°41' W 074°09'0 0.0
2014-Nov-21 20:23N 40°41' W 074°09'0 0.0
2014-Nov-21 19:29N 40°41' W 074°09'0 0.0
2014-Nov-21 18:29N 40°41' W 074°09'0 0.0
2014-Nov-21 17:32N 40°41' W 074°09'2 2.2
2014-Nov-21 16:34N 40°39' W 074°09'6 5.5
2014-Nov-21 15:33N 40°36' W 074°02'1110.8
2014-Nov-21 14:33N 40°28' W 073°52'6813.5
2014-Nov-21 09:33N 40°31' W 072°23'1717.0
2014-Nov-21 08:33N 40°31' W 072°01'1716.9
2014-Nov-21 07:34N 40°32' W 071°39'1717.2
2014-Nov-21 06:33N 40°32' W 071°16'  
2014-Nov-15 21:04N 38°48' W 031°45'2616.1
2014-Nov-15 19:29N 38°40' W 031°14'3516.4
2014-Nov-15 17:21N 38°28' W 030°32'1316.2
2014-Nov-15 16:33N 38°24' W 030°16'1616.0
2014-Nov-15 15:33N 38°19' W 029°57'1615.5
2014-Nov-15 14:33N 38°13' W 029°39'1515.5
2014-Nov-15 13:33N 38°08' W 029°20'1515.1
2014-Nov-15 12:33N 38°03' W 029°02'1515.4
2014-Nov-15 11:33N 37°57' W 028°44'1615.8
2014-Nov-15 10:34N 37°51' W 028°25'1615.8
2014-Nov-15 09:33N 37°46' W 028°06'1616.1
2014-Nov-15 08:33N 37°40' W 027°47'1716.8
2014-Nov-15 07:33N 37°34' W 027°28'1717.1
2014-Nov-15 06:33N 37°27' W 027°08'1716.9
2014-Nov-15 05:34N 37°21' W 026°48'1716.5
2014-Nov-15 04:34N 37°15' W 026°29'1616.2
2014-Nov-15 03:34N 37°08' W 026°10'1616.2
2014-Nov-15 02:34N 37°01' W 025°52'1616.3
2014-Nov-15 01:34N 36°55' W 025°33'1616.3
2014-Nov-15 00:34N 36°49' W 025°14'1716.7
2014-Nov-14 23:34N 36°42' W 024°55'1716.9
2014-Nov-14 22:34N 36°40' W 024°34'1717.2
2014-Nov-14 21:33N 36°39' W 024°13'1716.7
2014-Nov-14 20:34N 36°38' W 023°52'  

Dump ship's entire track history